P/2015 X1 ( PanSTARRS )

Japanese version
Home page
Updated on March 25, 2017

---------------------------------------------------------------------

* Profile

Discovery Date December 1, 2015
Magnitude 20.4 mag
Discoverer Pan-STARRS 1 telescope (Haleakala)

* Pictures

* Orbital Elements

Epoch 2015 Oct. 25.0 TT = JDT 2457320.5
T 2015 Oct. 10.67991 TT                                 MPCW
q   2.1035429            (2000.0)            P               Q
n   0.14254923     Peri.  219.03141     +0.93026955     -0.36092173
a   3.6293272      Node   161.79107     +0.36659672     +0.90746112
e   0.4204042      Incl.   12.16215     +0.01433209     +0.21505773
P   6.91
From 85 observations 2015 Aug. 12-2016 Jan. 3, mean residual 0".4.

* Magnitudes Graph

        m1 = 16.0 + 5 log d + 10.0 log r

---------------------------------------------------------------------

The orbital elements are published on M.P.E.C. 2016-Q04.
The magnitudes graphs are made with Comet for Windows.

---------------------------------------------------------------------

Copyright(C) Seiichi Yoshida (comet@aerith.net). All rights reserved.